Theta_e
353 352 353 350 344 347 345 346 350 352 346 345 346 345 344 342 333 322 324 322 328 330 329 330 328 326 325 331 332 332 332 332 330 331 330 328 327 327 328 327 325 325 326
353 352 351 351 344 342 343 342 345 349 350 347 344 345 344 342 340 325 323 322 327 333 333 332 331 328 322 319 327 331 329 329 330 329 330 329 330 327 325 326 326 325 326
352 352 352 351 348 338 337 333 336 342 346 349 348 345 342 340 339 337 325 324 326 331 327 332 328 326 323 322 332 330 331 333 333 330 329 330 328 328 329 328 326 326 327
350 351 352 351 345 335 333 331 334 334 346 349 347 344 343 341 340 339 333 326 323 331 327 332 330 328 324 326 332 332 331 331 331 330 331 331 328 330 328 327 328 327 325
349 350 349 347 347 342 337 334 332 339 340 344 347 347 346 344 342 338 334 329 322 327 329 329 332 332 331 332 332 332 332 330 329 330 330 329 327 327 326 326 326 323 321
348 347 348 351 351 347 342 340 341 339 343 346 348 350 350 347 346 343 339 335 327 327 328 329 330 333 330 331 324 331 331 331 329 327 329 329 328 321 322 325 324 321 321
347 348 347 351 351 349 348 348 349 349 350 351 352 352 352 351 350 348 345 340 334 328 329 328 328 334 333 325 328 330 332 331 326 327 328 327 321 324 326 326 323 323 323
347 347 347 346 348 350 351 350 352 354 353 353 355 356 357 356 354 353 348 343 335 331 329 328 327 328 333 324 329 331 331 327 326 327 328 322 325 324 326 326 324 322 321
348 346 347 347 347 350 351 353 353 354 355 356 356 357 357 356 355 351 348 343 337 332 330 330 330 330 330 325 328 327 327 327 328 327 326 323 323 324 325 325 324 321 322
347 347 346 348 348 349 352 353 354 356 356 357 358 358 356 354 353 350 346 343 338 330 331 330 331 329 328 326 328 326 327 328 327 325 323 323 323 323 323 320 321 321 322
347 349 348 348 349 351 352 354 356 357 358 358 358 357 354 351 348 346 344 341 336 331 331 332 332 327 324 326 330 327 326 327 324 324 324 323 321 319 321 321 320 317 315
350 352 351 353 356 356 359 359 359 359 358 359 356 352 349 347 344 343 341 338 336 336 337 335 330 328 327 330 326 327 327 327 325 322 319 319 319 321 319 315 315 314 313
356 355 361 362 364 365 366 361 358 361 359 353 351 347 345 343 341 340 339 339 339 338 334 331 327 329 328 324 327 327 326 323 321 321 320 319 320 319 318 315 314 312 311
362 362 365 364 365 365 364 360 361 358 353 349 348 346 343 341 340 340 340 339 337 334 332 326 329 327 324 326 325 324 322 322 322 321 319 319 318 317 316 314 311 310 308
363 364 363 362 361 361 360 359 356 351 349 347 345 343 340 340 341 339 338 335 332 329 328 329 327 326 326 326 326 325 324 323 322 321 319 320 318 316 315 311 308 307 307
361 356 358 358 358 357 356 352 350 347 345 343 342 341 340 340 338 336 333 329 329 328 328 326 325 325 326 325 324 324 324 322 322 319 319 319 315 312 311 308 307 306 307
352 351 353 355 352 353 347 346 345 345 342 341 340 341 340 337 336 332 328 326 325 325 326 327 326 326 324 323 322 321 320 319 320 322 316 313 313 311 308 307 306 306 306
344 345 347 346 342 345 346 343 341 339 339 338 338 338 337 335 331 327 326 324 325 326 326 325 321 322 321 320 320 319 318 316 315 314 313 312 311 307 307 306 306 306 305
342 341 340 338 337 337 337 337 334 330 331 334 335 335 332 329 328 327 327 325 326 323 323 323 322 320 319 318 318 317 316 316 315 314 309 306 307 306 305 305 305 305 305
347 346 342 340 339 339 337 335 334 332 330 326 326 325 326 327 326 324 324 325 324 322 322 322 319 319 318 317 316 314 314 314 312 307 306 306 305 305 305 305 305 305 305
340 339 345 340 341 338 336 337 336 335 332 330 329 328 323 323 323 323 323 323 321 320 320 319 319 318 317 314 311 311 308 308 306 306 306 305 305 304 304 305 305 305 305
337 337 335 335 335 334 333 334 332 331 331 331 330 328 324 324 323 322 321 322 321 321 320 319 318 317 315 312 311 309 308 307 305 305 305 305 304 304 304 304 305 305 304
335 332 334 334 332 332 333 332 331 330 331 330 329 328 326 324 324 325 324 322 321 321 319 319 318 316 314 310 309 308 304 303 303 305 305 304 302 304 304 304 304 304 304
328 330 331 329 330 331 330 329 328 327 328 328 327 327 326 325 324 324 323 321 321 320 319 318 317 316 315 311 309 308 303 302 302 302 302 300 299 303 304 304 304 303 303
330 330 330 330 330 329 329 328 328 328 326 325 325 325 324 324 324 323 322 320 319 318 317 317 316 315 314 312 310 307 303 301 300 300 300 298 296 303 304 304 303 303 303
328 328 328 328 328 327 327 325 325 325 326 326 326 325 325 323 321 320 320 318 317 318 317 316 315 314 313 312 312 310 304 301 299 297 296 296 298 303 303 302 302 303 302
Wind_Speed
43 39 36 35 40 38 39 39 39 30 28 30 26 27 26 25 23 23 21 20 19 17 16 16 14 15 16 17 17 14 12 12 10 11 13 14 14 13 15 18 21 22 20
44 41 38 37 38 40 42 42 41 39 34 32 33 31 29 28 25 25 23 24 21 18 18 20 21 19 15 15 18 18 14 13 15 17 18 17 15 16 19 19 21 19 23
45 43 41 39 39 42 42 44 44 42 40 38 37 38 36 32 30 28 25 25 24 19 18 20 21 24 22 19 18 17 17 16 15 17 19 18 17 16 18 20 24 24 19
47 45 44 44 42 42 43 44 46 45 41 42 42 40 39 37 35 31 27 27 29 26 25 24 24 22 20 19 17 19 16 19 17 19 19 18 19 18 23 22 23 24 29
46 46 46 45 44 42 44 45 45 48 47 43 42 42 42 39 38 35 35 32 33 26 22 23 25 22 19 18 18 21 20 19 18 19 23 26 26 27 26 27 29 31 29
46 46 45 45 45 45 45 46 45 43 44 45 44 43 42 42 40 36 37 34 33 29 22 21 25 25 22 23 21 24 21 19 15 22 26 29 28 26 25 26 29 27 28
48 46 45 45 44 44 45 45 44 42 40 40 40 40 41 39 37 36 37 35 33 33 23 22 23 23 26 25 22 26 23 17 20 19 26 23 24 21 20 24 23 25 29
51 49 46 45 44 42 42 43 42 40 38 38 37 38 37 36 32 32 33 34 32 34 25 21 22 24 24 21 23 23 18 24 20 24 23 24 22 22 22 25 26 27 29
55 52 51 47 44 46 45 42 40 38 37 37 36 37 35 33 32 29 30 31 32 32 26 22 22 25 25 21 20 22 23 25 23 22 21 22 23 23 23 24 26 29 32
58 56 54 50 47 48 47 43 40 38 36 35 35 34 30 27 27 27 22 26 29 31 27 27 24 26 26 20 21 21 22 24 22 18 20 22 22 22 23 20 21 28 28
59 54 52 48 47 47 44 40 41 36 34 33 30 29 26 24 22 23 23 20 19 24 27 27 25 24 22 20 19 20 23 23 18 18 22 24 22 18 14 18 16 17 21
49 43 46 40 41 40 38 38 33 31 31 28 25 22 22 18 17 18 17 14 15 19 20 18 17 18 19 16 17 17 19 17 18 19 18 19 13 13 15 17 21 23 19
39 39 33 34 34 34 34 29 30 28 27 23 22 20 17 15 16 16 14 15 14 17 17 17 16 15 15 16 18 16 14 14 13 14 13 11 13 15 19 19 22 21 22
35 36 35 37 33 29 28 28 26 25 21 21 20 18 16 16 16 15 13 14 15 18 18 17 17 17 18 17 11 10 10 11 14 14 13 9 12 17 20 21 19 23 22
37 35 32 32 32 31 27 24 22 20 16 17 16 14 16 19 16 11 11 11 13 13 15 19 19 16 9 7 9 10 12 13 14 12 10 13 17 21 20 18 17 18 18
33 26 28 29 29 27 25 22 19 15 15 14 14 16 14 12 10 9 10 8 11 11 13 11 8 7 10 11 13 15 15 13 12 9 13 15 17 16 16 15 15 17 18
23 26 28 27 25 22 18 17 18 19 17 18 16 16 12 11 9 12 11 9 10 12 11 9 8 8 10 12 6 7 8 9 8 14 13 13 16 17 15 14 16 16 18
21 24 22 22 19 19 18 18 16 18 20 18 16 15 13 12 14 15 10 11 10 8 6 6 7 6 6 5 5 7 7 6 9 11 12 15 18 9 10 13 13 17 18
23 22 22 19 19 19 19 20 21 19 14 14 15 16 15 15 15 13 11 8 8 9 3 6 8 12 11 9 11 13 14 16 17 18 11 4 5 8 11 12 14 15 17
17 16 18 19 19 21 20 18 20 18 16 16 11 15 15 16 14 13 11 10 11 8 4 13 12 12 12 13 14 16 16 16 13 6 6 6 7 8 11 11 14 14 18
15 6 18 23 24 21 18 19 19 17 16 14 11 11 11 14 14 12 9 9 8 12 7 9 10 11 14 14 10 9 7 6 4 7 8 9 11 9 9 12 12 13 18
7 12 15 20 19 17 14 16 14 15 20 23 19 15 15 17 14 12 9 10 11 12 12 13 13 12 13 8 10 9 9 11 8 11 13 13 12 5 9 11 8 14 16
14 12 18 15 9 16 18 16 15 14 17 18 18 16 18 17 14 11 11 9 11 16 14 13 13 12 10 10 13 14 9 9 8 11 13 14 9 7 6 6 10 14 12
5 10 13 16 12 20 19 15 10 11 12 14 13 15 18 18 17 15 13 13 14 13 14 14 15 14 12 14 16 15 10 13 12 14 14 10 7 7 4 6 9 11 12
8 14 17 17 18 15 9 7 6 9 12 10 11 15 18 20 18 14 17 14 11 13 14 15 14 14 13 10 9 11 13 13 15 16 16 13 7 6 5 8 8 6 11
6 6 7 8 7 6 7 6 11 11 14 17 20 17 17 16 10 13 17 12 14 14 13 14 12 13 14 10 10 12 7 9 11 13 11 8 9 9 5 8 5 5 8
Wind_Direction
216 219 224 223 218 217 217 219 219 218 217 223 229 237 243 245 240 231 221 219 213 218 232 229 227 209 216 224 225 228 239 239 248 245 259 276 294 286 289 296 297 294 290
219 220 224 226 223 220 219 222 223 222 224 225 230 235 240 244 245 241 232 222 218 226 235 236 233 233 224 217 223 230 243 243 259 269 266 274 279 297 297 290 305 300 294
220 223 226 226 226 224 222 222 225 223 223 229 232 237 243 246 249 250 243 232 228 233 242 245 243 237 236 217 217 210 232 250 261 271 272 272 281 291 292 287 294 296 287
221 224 226 228 227 226 226 224 225 228 227 229 235 240 244 248 252 253 252 238 229 234 241 253 255 246 241 231 233 246 243 261 267 268 277 280 284 286 294 291 289 287 292
219 224 227 229 230 229 230 232 229 228 234 236 239 242 246 248 251 253 256 244 230 230 235 251 246 249 246 245 244 254 257 264 273 283 287 289 288 287 290 296 297 297 300
218 223 227 227 229 230 232 233 236 234 234 236 240 244 248 250 254 259 260 252 241 237 239 247 242 245 245 242 242 258 258 255 275 295 298 294 293 293 295 300 301 304 307
216 221 224 227 228 231 232 234 235 236 238 240 242 244 248 253 257 258 258 254 249 240 244 246 240 243 239 249 254 264 259 266 287 300 293 291 292 294 300 297 303 303 303
214 219 220 225 228 229 231 233 233 235 237 241 243 247 247 254 261 260 254 250 249 241 246 240 240 245 243 259 261 271 279 286 291 290 286 294 290 293 291 293 296 300 299
215 217 221 222 226 227 229 230 232 231 233 236 242 246 249 255 256 261 253 244 246 239 242 235 242 246 242 258 261 271 276 283 290 289 286 287 290 291 296 294 291 298 300
216 220 220 222 224 228 229 228 230 229 232 235 239 247 255 258 255 256 263 251 243 235 231 236 254 259 253 261 263 268 275 289 290 283 285 285 287 291 290 286 299 300 300
215 215 218 220 224 227 226 225 222 222 228 233 241 247 248 251 255 261 255 255 242 236 244 250 258 247 253 264 268 274 279 286 280 289 290 288 289 290 291 297 290 296 306
208 210 215 212 218 218 217 215 217 219 223 225 228 235 242 243 244 245 248 233 230 247 259 261 249 248 255 255 274 277 280 275 288 295 299 298 283 288 293 292 296 304 308
201 201 201 198 202 203 200 209 222 212 214 220 222 230 231 229 236 226 222 226 236 243 243 234 243 259 257 273 279 276 267 279 288 293 308 303 291 295 290 294 299 299 299
184 190 191 188 187 193 205 220 213 207 213 214 219 224 221 220 212 212 226 235 240 229 227 241 254 253 262 271 262 269 264 277 278 279 292 288 287 285 293 302 305 310 315
180 181 178 186 195 195 196 193 201 211 220 223 216 209 198 200 214 228 218 232 224 225 239 250 257 264 256 273 285 278 276 279 270 286 282 274 275 291 300 308 314 320 319
173 192 193 183 181 183 189 189 187 199 207 199 194 197 199 210 203 192 184 182 201 224 226 236 239 246 271 289 295 278 268 265 257 269 272 280 284 301 308 316 317 318 322
195 181 178 175 179 185 191 191 190 183 186 188 186 200 206 198 184 183 189 216 214 218 227 236 252 275 277 281 272 250 243 267 239 254 259 267 288 300 306 312 314 319 322
176 190 185 189 182 184 179 173 177 181 180 167 178 183 188 204 195 193 208 208 215 222 232 248 259 250 204 198 207 228 252 245 214 227 259 281 291 296 306 305 311 325 321
142 147 146 143 146 153 154 173 157 163 168 181 191 203 196 198 207 214 223 215 212 185 193 245 226 204 236 256 266 272 273 269 273 283 290 294 307 302 303 309 323 323 327
152 158 151 160 152 158 157 157 162 154 161 160 173 204 202 204 204 210 216 214 204 192 216 193 209 230 245 270 282 287 277 276 283 278 279 286 296 295 308 318 324 322 338
160 180 185 172 181 174 171 178 203 185 184 187 203 200 196 196 195 202 200 207 203 190 207 226 247 268 286 291 289 287 287 264 233 277 246 264 275 290 314 322 319 330 342
166 171 156 169 176 184 181 175 200 201 202 199 201 192 191 193 192 195 188 198 181 201 233 256 264 278 284 272 279 271 263 279 236 260 267 275 287 263 316 315 318 341 333
187 195 197 176 202 187 197 194 199 185 196 197 193 200 195 189 188 200 207 202 207 227 246 249 269 262 273 264 272 278 290 224 266 254 264 286 270 245 305 324 334 340 339
168 182 194 206 219 197 186 180 165 141 162 182 194 210 207 206 198 206 217 222 221 225 248 266 277 284 299 262 269 286 288 241 262 278 284 285 278 256 271 310 320 330 350
174 179 187 185 183 174 144 170 194 242 224 223 232 204 203 201 203 225 221 222 241 244 249 256 259 261 271 290 303 292 272 255 260 269 277 282 266 212 288 322 307 318 355
192 185 174 210 223 251 201 199 230 230 221 220 205 218 216 210 233 234 221 221 237 246 240 245 254 257 255 290 311 320 296 283 284 278 270 254 214 220 270 323 277 328 339